User: anonymous   Login
Location: Unspecified
(0.0000°N, 0.0000°E)
Time: 20:20:18
(UTC+00:00)
Language:

WGS 5 (USA 243) - Orbit

View from above orbital plane
View from above orbital plane
View from above satellite
View from above satellite

Ground track
Ground track

The orbit data is extracted from the following two-line orbital elements,

1 39168U 13024A   17309.91449291 0.00000000  00000-0  00000-0 0    09
2 39168   0.0211 321.9380 0005459  91.8144 268.2681  1.00270000    02
Epoch (UTC): 05 November 2017 21:56:52
Eccentricity: 0.0005459
inclination: 0.0211°
perigee height: 35764 km
apogee height: 35810 km
right ascension of ascending node: 321.9380°
argument of perigee: 91.8144°
revolutions per day: 1.00270000
mean anomaly at epoch: 268.2681°
orbit number at epoch: 0

The dashed part of the orbit path shows where the satellite is in the earth's shadow,  

DLR